South Lake Tahoe, CA

7:23 AM PDT on June 24, 2017 (GMT -0700)
Lake Tahoe

Weather History for KTVL - September, 2012

Change the Weather History Date:

Saturday, September 1, 2012

  Actual Average Record
Temperature  
Mean Temperature 52 °F 58 °F  
Max Temperature 73 °F 78 °F 88 °F (1988)
Min Temperature 31 °F 38 °F 27 °F (1999)
Degree Days  
Heating Degree Days 13 8  
Month to date heating degree days 13 8  
Since 1 July heating degree days 200 304  
Cooling Degree Days 0 0  
Month to date cooling degree days 0 0  
Year to date cooling degree days 30 30  
Growing Degree Days 1 (Base 50)    
Moisture  
Dew Point 26 °F    
Average Humidity 42    
Maximum Humidity 69    
Minimum Humidity 14    
Precipitation  
Precipitation 0.00 in - 0.69 in (1983)
Month to date precipitation 0.00  
Year to date precipitation 10.90  
Sea Level Pressure  
Sea Level Pressure 30.05 in    
Wind  
Wind Speed 2 mph (South)    
Max Wind Speed 14 mph    
Max Gust Speed 23 mph    
Visibility 10 miles    
Events      
T = Trace of Precipitation, MM = Missing Value Source: NWS Daily Summary

Daily Weather History Graph

Daily Weather History Graph

Search for Another Location

Airport or City:

Trip Planner

Search our weather history database for the weather conditions in past years. The results will help you decide how hot, cold, wet, or windy it might be!

Date:

Astronomy

Sep. 01, 2012 Rise Set
Actual Time 6:29 AM PDT 7:29 PM PDT
Civil Twilight 6:02 AM PDT 7:56 PM PDT
Nautical Twilight 5:29 AM PDT 8:28 PM PDT
Astronomical Twilight 4:55 AM PDT 9:02 PM PDT
Moon 7:50 PM PDT (9/1) 7:40 AM PDT (9/1)
Length of Visible Light 13h 54m
Length of Day
12h 59m
Full, 98% of the Moon is Illuminated
Sep 1
Full
Sep 8
Last Quarter
Sep 15
New
Sep 22
First Quarter
Sep 29
Full

Hourly Weather History & Observations

Time (PDT) Temp. Windchill Dew Point Humidity Pressure Visibility Wind Dir Wind Speed Gust Speed Precip Events Conditions
12:53 AM 42.1 °F - 23.0 °F 47% 29.99 in 10.0 mi Calm Calm - N/A   Clear
1:53 AM 39.9 °F - 24.1 °F 53% 29.98 in 10.0 mi Calm Calm - N/A   Clear
2:53 AM 37.4 °F - 21.2 °F 52% 30.12 in 10.0 mi Calm Calm - N/A   Clear
3:53 AM 35.1 °F 32.2 °F 23.0 °F 61% 30.01 in 10.0 mi South 3.5 mph - N/A   Clear
4:53 AM 33.1 °F 30.0 °F 23.0 °F 66% 30.01 in 10.0 mi South 3.5 mph - N/A   Clear
5:53 AM 30.9 °F - 21.0 °F 67% 30.03 in 10.0 mi Calm Calm - N/A   Clear
6:53 AM 30.9 °F 26.2 °F 21.0 °F 67% 30.06 in 10.0 mi SSW 4.6 mph - N/A   Clear
7:53 AM 37.9 °F - 21.9 °F 53% 30.07 in 10.0 mi Calm Calm - N/A   Clear
8:53 AM 52.0 °F - 21.9 °F 31% 30.04 in 10.0 mi SSW 3.5 mph - N/A   Clear
9:53 AM 63.0 °F - 15.1 °F 16% 30.02 in 10.0 mi Calm Calm - N/A   Clear
10:53 AM 66.9 °F - 16.0 °F 14% 30.04 in 10.0 mi NNE 8.1 mph - N/A   Clear
11:53 AM 66.9 °F - 19.9 °F 17% 30.05 in 10.0 mi Variable 4.6 mph - N/A   Clear
12:53 PM 71.1 °F - 21.9 °F 16% 30.04 in 10.0 mi NNE 11.5 mph 16.1 mph N/A   Clear
1:53 PM 71.1 °F - 21.9 °F 16% 30.04 in 10.0 mi Variable 3.5 mph - N/A   Clear
2:53 PM 72.0 °F - 24.1 °F 17% 30.04 in 10.0 mi Variable 4.6 mph 21.9 mph N/A   Clear
3:53 PM 71.1 °F - 23.0 °F 16% 30.04 in 10.0 mi NNE 8.1 mph 18.4 mph N/A   Clear
4:53 PM 72.0 °F - 30.0 °F 21% 30.05 in 10.0 mi NNE 8.1 mph - N/A   Clear
5:53 PM 70.0 °F - 33.1 °F 26% 30.06 in 10.0 mi South 8.1 mph - N/A   Clear
6:53 PM 64.9 °F - 39.0 °F 39% 30.09 in 10.0 mi Calm Calm - N/A   Clear
7:53 PM 59.0 °F - 36.0 °F 42% 30.10 in 10.0 mi Calm Calm - N/A   Clear
8:53 PM 55.0 °F - 36.0 °F 49% 30.09 in 10.0 mi Calm Calm - N/A   Clear
9:53 PM 51.1 °F - 37.0 °F 59% 30.09 in 10.0 mi Calm Calm - N/A   Clear
10:53 PM 48.9 °F - 36.0 °F 61% 30.09 in 10.0 mi Calm Calm - N/A   Clear
11:53 PM 46.9 °F - 36.0 °F 66% 30.10 in 10.0 mi SSW 3.5 mph - N/A   Clear